BAW2CE KBOS-EGLL

Flight info

Callsign BAW2CE
Flight time N/A
Altitude 39000
Route LBSTA DCT EBONY N381B ALLRY/M085F400 DCT 51N050W 52N040W 53N030W 54N020W DCT DOGAL DCT BEXET/N0490F410 DCT DEVOL DCT LIFFY UL975 MALUD Q38 NUGRA
Aircraft A388/J-SADE2E3FGHIJ3J4J5M1RWXY/LB1D1

Departure

Time 2026-05-05 14:31
Airport Boston Logan International Airport (KBOS)

Arrival

Time N/A
Airport London Heathrow Airport (EGLL)
Time Latitude Longitude Altitude Speed Heading
2026-05-05 14:19 42.37112 -71.01928 30 ft 0 kts 212°
2026-05-05 14:20 42.37117 -71.01924 29 ft 2 kts 210°
2026-05-05 14:20 42.37131 -71.01912 29 ft 2 kts 211°
2026-05-05 14:20 42.37145 -71.01900 29 ft 2 kts 212°
2026-05-05 14:21 42.37159 -71.01888 29 ft 2 kts 211°
2026-05-05 14:21 42.37176 -71.01889 29 ft 2 kts 165°
2026-05-05 14:21 42.37190 -71.01900 28 ft 2 kts 144°
2026-05-05 14:21 42.37202 -71.01916 28 ft 2 kts 134°
2026-05-05 14:22 42.37207 -71.01925 27 ft 0 kts 129°
2026-05-05 14:23 42.37207 -71.01924 27 ft 1 kts 129°
2026-05-05 14:23 42.37196 -71.01900 30 ft 5 kts 120°
2026-05-05 14:23 42.37171 -71.01846 30 ft 8 kts 123°
2026-05-05 14:24 42.37137 -71.01776 30 ft 10 kts 123°
2026-05-05 14:24 42.37095 -71.01690 30 ft 12 kts 127°
2026-05-05 14:24 42.37037 -71.01607 30 ft 13 kts 135°
2026-05-05 14:24 42.36977 -71.01525 30 ft 8 kts 133°
2026-05-05 14:25 42.36934 -71.01463 30 ft 10 kts 133°
2026-05-05 14:25 42.36881 -71.01389 30 ft 11 kts 134°
2026-05-05 14:25 42.36844 -71.01330 30 ft 6 kts 102°
2026-05-05 14:25 42.36852 -71.01271 30 ft 7 kts 58°
2026-05-05 14:26 42.36896 -71.01215 30 ft 11 kts 36°
2026-05-05 14:26 42.36970 -71.01134 30 ft 16 kts 39°
2026-05-05 14:26 42.37082 -71.01049 30 ft 21 kts 25°
2026-05-05 14:26 42.37224 -71.00957 30 ft 24 kts 26°
2026-05-05 14:27 42.37392 -71.00864 30 ft 27 kts 19°
2026-05-05 14:27 42.37580 -71.00775 30 ft 30 kts 20°
2026-05-05 14:27 42.37747 -71.00691 30 ft 15 kts 20°
2026-05-05 14:27 42.37802 -71.00664 30 ft 8 kts 21°
2026-05-05 14:28 42.37836 -71.00618 30 ft 8 kts 76°
2026-05-05 14:28 42.37825 -71.00541 30 ft 10 kts 110°
2026-05-05 14:28 42.37813 -71.00499 30 ft 2 kts 110°
2026-05-05 14:29 42.37809 -71.00488 30 ft 1 kts 135°
2026-05-05 14:29 42.37806 -71.00484 30 ft 1 kts 151°
2026-05-05 14:29 42.37783 -71.00479 30 ft 3 kts 196°
2026-05-05 14:30 42.37775 -71.00483 30 ft 10 kts 197°
2026-05-05 14:30 42.37440 -71.00643 33 ft 93 kts 200°
2026-05-05 14:31 42.36610 -71.01050 33 ft 154 kts 200°
2026-05-05 14:31 42.35565 -71.01544 583 ft 156 kts 198°
2026-05-05 14:31 42.34504 -71.01696 1424 ft 156 kts 177°
2026-05-05 14:31 42.33477 -71.00990 2081 ft 183 kts 147°
2026-05-05 14:32 42.32618 -70.99567 2419 ft 205 kts 135°
2026-05-05 14:32 42.31731 -70.97955 2656 ft 223 kts 134°
2026-05-05 14:32 42.31058 -70.95946 2958 ft 254 kts 102°
2026-05-05 14:32 42.31140 -70.93544 3774 ft 262 kts 82°
2026-05-05 14:33 42.31565 -70.91011 4258 ft 284 kts 77°
2026-05-05 14:33 42.32060 -70.88377 4757 ft 300 kts 77°
2026-05-05 14:33 42.32540 -70.85590 5585 ft 302 kts 79°
2026-05-05 14:33 42.32970 -70.82833 6404 ft 303 kts 80°
2026-05-05 14:34 42.33232 -70.79999 7155 ft 307 kts 92°
2026-05-05 14:34 42.33019 -70.77135 7946 ft 305 kts 105°
2026-05-05 14:34 42.32614 -70.74294 8706 ft 310 kts 104°
2026-05-05 14:34 42.32231 -70.71404 9470 ft 315 kts 104°
2026-05-05 14:35 42.31851 -70.68470 10192 ft 320 kts 103°
2026-05-05 14:35 42.31654 -70.65370 10475 ft 344 kts 88°
2026-05-05 14:35 42.31949 -70.63219 10608 ft 358 kts 72°
2026-05-05 14:35 42.33124 -70.60185 10876 ft 374 kts 50°
2026-05-05 14:36 42.35821 -70.57305 11751 ft 370 kts 20°
2026-05-05 14:36 42.37428 -70.56584 12199 ft 365 kts
2026-05-05 14:36 42.40719 -70.56714 13089 ft 354 kts 339°
2026-05-05 14:36 42.43028 -70.57835 13728 ft 354 kts 334°
2026-05-05 14:37 42.45394 -70.58877 14266 ft 362 kts 340°
2026-05-05 14:37 42.47070 -70.59372 14608 ft 368 kts 345°
2026-05-05 14:37 42.50489 -70.59915 15302 ft 378 kts 351°
2026-05-05 14:37 42.52242 -70.60056 15646 ft 382 kts 352°
2026-05-05 14:38 42.54918 -70.60198 16151 ft 387 kts 353°
2026-05-05 14:38 42.57624 -70.60312 16658 ft 392 kts 354°
2026-05-05 14:38 42.60363 -70.60427 17166 ft 396 kts 354°
2026-05-05 14:38 42.63137 -70.60550 17643 ft 401 kts 353°
2026-05-05 14:39 42.65939 -70.60680 18150 ft 406 kts 353°
2026-05-05 14:39 42.68773 -70.60814 18631 ft 408 kts 353°
2026-05-05 14:39 42.71618 -70.60950 19142 ft 409 kts 354°
2026-05-05 14:39 42.74475 -70.61087 19631 ft 411 kts 354°
2026-05-05 14:40 42.77363 -70.61043 20063 ft 418 kts
2026-05-05 14:40 42.80191 -70.60020 20562 ft 425 kts 21°
2026-05-05 14:40 42.82753 -70.57996 21029 ft 431 kts 37°
2026-05-05 14:40 42.84882 -70.55117 21485 ft 434 kts 51°
2026-05-05 14:41 42.86721 -70.51839 21927 ft 436 kts 53°
2026-05-05 14:41 42.88552 -70.48528 22377 ft 438 kts 52°
2026-05-05 14:41 42.90462 -70.45265 22838 ft 440 kts 50°
2026-05-05 14:41 42.92433 -70.42060 23287 ft 443 kts 49°
2026-05-05 14:42 42.94408 -70.38936 23693 ft 444 kts 49°
2026-05-05 14:42 42.96401 -70.35818 24066 ft 446 kts 48°
2026-05-05 14:42 42.98452 -70.32617 24450 ft 448 kts 48°
2026-05-05 14:42 42.99764 -70.30567 24693 ft 449 kts 48°
2026-05-05 14:43 43.01764 -70.27439 25063 ft 452 kts 48°
2026-05-05 14:43 43.03862 -70.24151 25476 ft 454 kts 48°
2026-05-05 14:43 43.05857 -70.21018 25865 ft 456 kts 48°
2026-05-05 14:43 43.07940 -70.17743 26317 ft 458 kts 48°
2026-05-05 14:44 43.10034 -70.14447 26752 ft 460 kts 47°
2026-05-05 14:44 43.12135 -70.11136 27205 ft 462 kts 47°
2026-05-05 14:44 43.14254 -70.07795 27653 ft 465 kts 47°
2026-05-05 14:44 43.16374 -70.04446 28109 ft 467 kts 47°
2026-05-05 14:45 43.18504 -70.01078 28567 ft 470 kts 47°
2026-05-05 14:45 43.20654 -69.97675 29035 ft 472 kts 47°
2026-05-05 14:45 43.22788 -69.94293 29487 ft 475 kts 47°
2026-05-05 14:45 43.24949 -69.90864 29962 ft 477 kts 47°
2026-05-05 14:46 43.27136 -69.87389 30361 ft 480 kts 47°
2026-05-05 14:46 43.29322 -69.83913 30747 ft 483 kts 47°
2026-05-05 14:46 43.31532 -69.80393 31150 ft 485 kts 47°
2026-05-05 14:46 43.33730 -69.76888 31530 ft 488 kts 47°
2026-05-05 14:47 43.35952 -69.73342 31912 ft 491 kts 47°
2026-05-05 14:47 43.38181 -69.69779 32304 ft 493 kts 47°
2026-05-05 14:47 43.40426 -69.66186 32691 ft 496 kts 47°
2026-05-05 14:47 43.42684 -69.62568 33071 ft 498 kts 47°
2026-05-05 14:48 43.44945 -69.58941 33458 ft 501 kts 47°
2026-05-05 14:48 43.47212 -69.55298 33850 ft 503 kts 47°
2026-05-05 14:48 43.49494 -69.51628 34183 ft 506 kts 47°
2026-05-05 14:48 43.51783 -69.47942 34534 ft 508 kts 47°
2026-05-05 14:49 43.54081 -69.44236 34989 ft 507 kts 47°
2026-05-05 14:49 43.56377 -69.40527 35432 ft 507 kts 47°
2026-05-05 14:49 43.58662 -69.36833 35885 ft 506 kts 47°
2026-05-05 14:49 43.60939 -69.33147 36325 ft 505 kts 47°
2026-05-05 14:50 43.63218 -69.29453 36787 ft 504 kts 47°
2026-05-05 14:50 43.65460 -69.25815 37203 ft 504 kts 47°
2026-05-05 14:50 43.67739 -69.22112 37644 ft 503 kts 47°
2026-05-05 14:50 43.70007 -69.18422 38062 ft 503 kts 47°
2026-05-05 14:51 43.72265 -69.14742 38474 ft 502 kts 47°
2026-05-05 14:51 43.74534 -69.11041 38800 ft 502 kts 47°
2026-05-05 14:51 43.79088 -69.03601 38900 ft 508 kts 47°
2026-05-05 14:52 43.83603 -68.96201 38900 ft 506 kts 47°
2026-05-05 14:52 43.88158 -68.88717 38900 ft 507 kts 47°
2026-05-05 14:53 43.92699 -68.81238 38900 ft 507 kts 47°
2026-05-05 14:53 43.97251 -68.73721 38903 ft 508 kts 47°
2026-05-05 14:54 44.01802 -68.66186 38908 ft 509 kts 47°
2026-05-05 14:54 44.06355 -68.58627 38909 ft 509 kts 47°
2026-05-05 14:55 44.10874 -68.51105 38909 ft 510 kts 47°
2026-05-05 14:55 44.15419 -68.43521 38908 ft 510 kts 47°
2026-05-05 14:56 44.19959 -68.35924 38909 ft 510 kts 47°
2026-05-05 14:56 44.24495 -68.28314 38905 ft 510 kts 47°
2026-05-05 14:57 44.29024 -68.20695 38904 ft 510 kts 47°
2026-05-05 14:57 44.33525 -68.13104 38905 ft 510 kts 47°
2026-05-05 14:58 44.38041 -68.05467 38901 ft 510 kts 47°
2026-05-05 14:58 44.42557 -67.97809 38906 ft 510 kts 47°
2026-05-05 14:59 44.47069 -67.90138 38912 ft 510 kts 47°
2026-05-05 14:59 44.51573 -67.82459 38918 ft 510 kts 47°
2026-05-05 15:00 44.55315 -67.76064 38898 ft 510 kts 48°
2026-05-05 15:00 44.60574 -67.67053 38922 ft 510 kts 48°
2026-05-05 15:01 44.65061 -67.59342 38909 ft 510 kts 48°
2026-05-05 15:01 44.69451 -67.51776 38902 ft 510 kts 48°
2026-05-05 15:02 44.72298 -67.46861 38908 ft 510 kts 48°
2026-05-05 15:02 44.76782 -67.39099 38912 ft 511 kts 48°
2026-05-05 15:03 44.81261 -67.31326 38925 ft 511 kts 48°
2026-05-05 15:03 44.85738 -67.23539 38916 ft 511 kts 48°
2026-05-05 15:04 44.90180 -67.15700 38919 ft 512 kts 51°
2026-05-05 15:04 44.94176 -67.07365 38914 ft 512 kts 53°
2026-05-05 15:05 45.00140 -66.94928 38914 ft 512 kts 53°
2026-05-05 15:06 45.04137 -66.86590 38912 ft 511 kts 53°
2026-05-05 15:06 45.08115 -66.78261 38906 ft 511 kts 53°
2026-05-05 15:07 45.12093 -66.69905 38906 ft 511 kts 53°
2026-05-05 15:07 45.16035 -66.61600 38907 ft 511 kts 53°
2026-05-05 15:08 45.20002 -66.53220 38908 ft 511 kts 53°
2026-05-05 15:08 45.23956 -66.44841 38906 ft 511 kts 53°
2026-05-05 15:09 45.27905 -66.36440 38910 ft 511 kts 53°
2026-05-05 15:09 45.31832 -66.28052 38915 ft 511 kts 54°
2026-05-05 15:10 45.35765 -66.19624 38920 ft 511 kts 54°
2026-05-05 15:10 45.39688 -66.11195 38927 ft 511 kts 54°
2026-05-05 15:11 45.43603 -66.02755 38925 ft 511 kts 54°
2026-05-05 15:11 45.47492 -65.94348 38928 ft 511 kts 54°
2026-05-05 15:12 45.51397 -65.85882 38924 ft 511 kts 54°
2026-05-05 15:12 45.55298 -65.77397 38921 ft 511 kts 54°
2026-05-05 15:13 45.59163 -65.68965 38916 ft 510 kts 54°
2026-05-05 15:13 45.63044 -65.60474 38909 ft 510 kts 54°
2026-05-05 15:14 45.66920 -65.51968 38906 ft 510 kts 54°
2026-05-05 15:14 45.70799 -65.43432 38898 ft 511 kts 54°
2026-05-05 15:15 45.74659 -65.34909 38900 ft 511 kts 54°
2026-05-05 15:15 45.78522 -65.26355 38890 ft 511 kts 54°
2026-05-05 15:16 45.82374 -65.17798 38897 ft 511 kts 54°
2026-05-05 15:16 45.86196 -65.09283 38895 ft 511 kts 54°
2026-05-05 15:17 45.90038 -65.00696 38887 ft 511 kts 54°
2026-05-05 15:17 45.93882 -64.92081 38863 ft 512 kts 54°
2026-05-05 15:18 45.97713 -64.83468 38853 ft 512 kts 54°
2026-05-05 15:18 46.01547 -64.74819 38849 ft 512 kts 55°
2026-05-05 15:19 46.05376 -64.66156 38850 ft 513 kts 55°
2026-05-05 15:19 46.09202 -64.57473 38853 ft 513 kts 55°
2026-05-05 15:20 46.13015 -64.48794 38854 ft 513 kts 55°
2026-05-05 15:20 46.16827 -64.40090 38860 ft 513 kts 55°
2026-05-05 15:21 46.20627 -64.31385 38861 ft 513 kts 55°
2026-05-05 15:21 46.24394 -64.22728 38867 ft 513 kts 55°
2026-05-05 15:22 46.28189 -64.13980 38868 ft 513 kts 55°
2026-05-05 15:22 46.31973 -64.05229 38857 ft 512 kts 55°
2026-05-05 15:23 46.35747 -63.96474 38854 ft 512 kts 55°
2026-05-05 15:23 46.38879 -63.89190 38855 ft 512 kts 55°
2026-05-05 15:24 46.42644 -63.80405 38862 ft 513 kts 55°
2026-05-05 15:24 46.47015 -63.70173 38862 ft 514 kts 55°
2026-05-05 15:25 46.50774 -63.61342 38864 ft 514 kts 56°
2026-05-05 15:25 46.53899 -63.53979 38862 ft 515 kts 56°
2026-05-05 15:26 46.57662 -63.45089 38857 ft 516 kts 56°
2026-05-05 15:26 46.61423 -63.36172 38858 ft 517 kts 56°
2026-05-05 15:27 46.65180 -63.27237 38857 ft 518 kts 56°
2026-05-05 15:27 46.68946 -63.18251 38859 ft 519 kts 56°
2026-05-05 15:28 46.72684 -63.09302 38864 ft 520 kts 56°
2026-05-05 15:28 46.76446 -63.00268 38866 ft 521 kts 56°
2026-05-05 15:29 46.80200 -62.91221 38863 ft 522 kts 56°
2026-05-05 15:29 46.83957 -62.82139 38868 ft 522 kts 56°
2026-05-05 15:30 46.87704 -62.73051 38871 ft 522 kts 56°
2026-05-05 15:30 46.91444 -62.63950 38870 ft 522 kts 56°
2026-05-05 15:31 46.95175 -62.54839 38875 ft 522 kts 56°
2026-05-05 15:31 46.98878 -62.45766 38874 ft 522 kts 56°
2026-05-05 15:32 47.02589 -62.36645 38876 ft 522 kts 56°
2026-05-05 15:32 47.06303 -62.27485 38880 ft 521 kts 56°
2026-05-05 15:33 47.10002 -62.18331 38879 ft 521 kts 56°
2026-05-05 15:33 47.13692 -62.09169 38875 ft 522 kts 56°
2026-05-05 15:34 47.17358 -62.00036 38873 ft 522 kts 56°
2026-05-05 15:34 47.21061 -61.90779 38868 ft 522 kts 56°
2026-05-05 15:35 47.24712 -61.81622 38870 ft 522 kts 57°
2026-05-05 15:35 47.28377 -61.72399 38854 ft 522 kts 57°
2026-05-05 15:36 47.32042 -61.63143 38853 ft 522 kts 57°
2026-05-05 15:36 47.35702 -61.53868 38860 ft 522 kts 57°
2026-05-05 15:37 47.39346 -61.44603 38869 ft 522 kts 57°
2026-05-05 15:37 47.42985 -61.35317 38874 ft 522 kts 57°
2026-05-05 15:38 47.46603 -61.26054 38884 ft 522 kts 57°
2026-05-05 15:38 47.50218 -61.16768 38889 ft 522 kts 57°
2026-05-05 15:39 47.53834 -61.07446 38888 ft 522 kts 57°
2026-05-05 15:39 47.57445 -60.98102 38893 ft 522 kts 57°
2026-05-05 15:40 47.61046 -60.88755 38897 ft 522 kts 57°
2026-05-05 15:40 47.64614 -60.79459 38896 ft 522 kts 58°
2026-05-05 15:41 47.68216 -60.70044 38893 ft 522 kts 58°
2026-05-05 15:41 47.71767 -60.60729 38893 ft 522 kts 58°
2026-05-05 15:42 47.75338 -60.51329 38894 ft 522 kts 58°
2026-05-05 15:42 47.78895 -60.41931 38895 ft 522 kts 58°
2026-05-05 15:43 47.82447 -60.32516 38896 ft 522 kts 58°
2026-05-05 15:43 47.85994 -60.23076 38897 ft 522 kts 58°
2026-05-05 15:44 47.89533 -60.13629 38899 ft 522 kts 58°
2026-05-05 15:44 47.93067 -60.04158 38900 ft 523 kts 58°
2026-05-05 15:45 47.96578 -59.94717 38903 ft 523 kts 58°
2026-05-05 15:45 48.00097 -59.85220 38900 ft 523 kts 58°
2026-05-05 15:46 48.03619 -59.75680 38905 ft 524 kts 59°
2026-05-05 15:46 48.07132 -59.66131 38907 ft 524 kts 59°
2026-05-05 15:47 48.10640 -59.56560 38905 ft 524 kts 59°
2026-05-05 15:47 48.14112 -59.47053 38908 ft 524 kts 59°
2026-05-05 15:48 48.17599 -59.37470 38908 ft 523 kts 59°
2026-05-05 15:48 48.21078 -59.27877 38904 ft 523 kts 59°
2026-05-05 15:49 48.24541 -59.18291 38904 ft 523 kts 59°
2026-05-05 15:49 48.27999 -59.08682 38909 ft 523 kts 59°
2026-05-05 15:50 48.31445 -58.99073 38896 ft 522 kts 59°
2026-05-05 15:50 48.34884 -58.89448 38894 ft 522 kts 59°
2026-05-05 15:51 48.38317 -58.79804 38894 ft 522 kts 59°
2026-05-05 15:51 48.41734 -58.70172 38890 ft 522 kts 60°
2026-05-05 15:52 48.45146 -58.60515 38888 ft 522 kts 60°
2026-05-05 15:52 48.48530 -58.50901 38885 ft 522 kts 60°
2026-05-05 15:53 48.51922 -58.41231 38877 ft 522 kts 60°
2026-05-05 15:53 48.55318 -58.31515 38872 ft 523 kts 60°
2026-05-05 15:54 48.58705 -58.21786 38862 ft 524 kts 60°
2026-05-05 15:54 48.62089 -58.12025 38855 ft 525 kts 60°
2026-05-05 15:55 48.65474 -58.02230 38842 ft 526 kts 60°
2026-05-05 15:55 48.68834 -57.92467 38837 ft 526 kts 60°
2026-05-05 15:56 48.72209 -57.82624 38827 ft 526 kts 60°
2026-05-05 15:56 48.75580 -57.72756 38816 ft 527 kts 60°
2026-05-05 15:57 48.78937 -57.62888 38807 ft 527 kts 60°
2026-05-05 15:57 48.82296 -57.52981 38798 ft 528 kts 60°
2026-05-05 15:58 48.85653 -57.43040 38782 ft 529 kts 61°
2026-05-05 15:58 48.89005 -57.33072 38773 ft 529 kts 61°
2026-05-05 15:59 48.92327 -57.23158 38786 ft 530 kts 61°
2026-05-05 15:59 48.95664 -57.13157 38779 ft 530 kts 61°
2026-05-05 16:00 48.98993 -57.03143 38775 ft 531 kts 61°
2026-05-05 16:00 49.02316 -56.93108 38778 ft 531 kts 61°
2026-05-05 16:01 49.05640 -56.83029 38778 ft 532 kts 61°
2026-05-05 16:01 49.08944 -56.72969 38780 ft 533 kts 61°
2026-05-05 16:02 49.12250 -56.62865 38785 ft 533 kts 62°
2026-05-05 16:02 49.15561 -56.52703 38782 ft 533 kts 62°
2026-05-05 16:03 49.18853 -56.42561 38780 ft 533 kts 62°
2026-05-05 16:03 49.22140 -56.32394 38766 ft 532 kts 62°
2026-05-05 16:04 49.25410 -56.22236 38758 ft 532 kts 62°
2026-05-05 16:04 49.28670 -56.12066 38752 ft 531 kts 62°
2026-05-05 16:05 49.31918 -56.01897 38742 ft 531 kts 62°
2026-05-05 16:05 49.35157 -55.91712 38731 ft 531 kts 63°
2026-05-05 16:06 49.38361 -55.81598 38732 ft 530 kts 63°
2026-05-05 16:06 49.41590 -55.71361 38729 ft 530 kts 63°
2026-05-05 16:07 49.44773 -55.61230 38729 ft 529 kts 63°
2026-05-05 16:07 49.47963 -55.51037 38724 ft 529 kts 64°
2026-05-05 16:08 49.51140 -55.40841 38728 ft 528 kts 64°
2026-05-05 16:08 49.54299 -55.30660 38726 ft 527 kts 64°
2026-05-05 16:09 49.57452 -55.20457 38722 ft 526 kts 64°
2026-05-05 16:09 49.60592 -55.10253 38714 ft 525 kts 64°
2026-05-05 16:10 49.63718 -55.00055 38712 ft 525 kts 65°
2026-05-05 16:10 49.66299 -54.91601 38708 ft 524 kts 65°
2026-05-05 16:11 49.69897 -54.79768 38705 ft 524 kts 65°
2026-05-05 16:12 49.76062 -54.59358 38711 ft 524 kts 65°
2026-05-05 16:13 49.83208 -54.35485 38722 ft 524 kts 65°
2026-05-05 16:13 49.86257 -54.25230 38726 ft 525 kts 65°
2026-05-05 16:14 49.92355 -54.04583 38735 ft 527 kts 66°
2026-05-05 16:15 49.98447 -53.83779 38739 ft 529 kts 66°
2026-05-05 16:16 50.04518 -53.62867 38748 ft 531 kts 66°
2026-05-05 16:17 50.09038 -53.47177 38754 ft 532 kts 66°
2026-05-05 16:18 50.13554 -53.31398 38755 ft 531 kts 66°
2026-05-05 16:19 50.18041 -53.15613 38751 ft 530 kts 67°
2026-05-05 16:19 50.22500 -52.99827 38750 ft 529 kts 67°
2026-05-05 16:20 50.28399 -52.78775 38751 ft 528 kts 67°
2026-05-05 16:22 50.35696 -52.52551 38748 ft 527 kts 68°
2026-05-05 16:23 50.41507 -52.31474 38752 ft 527 kts 68°
2026-05-05 16:23 50.45834 -52.15653 38760 ft 527 kts 68°
2026-05-05 16:24 50.48712 -52.05047 38760 ft 526 kts 69°
2026-05-05 16:25 50.52800 -51.89048 38768 ft 526 kts 70°
2026-05-05 16:25 50.56984 -51.73075 38777 ft 527 kts 69°
2026-05-05 16:26 50.62481 -51.51765 38783 ft 526 kts 70°
2026-05-05 16:27 50.65211 -51.41069 38785 ft 526 kts 70°
2026-05-05 16:27 50.67924 -51.30384 38790 ft 525 kts 70°
2026-05-05 16:28 50.70628 -51.19687 38789 ft 524 kts 70°
2026-05-05 16:28 50.73318 -51.08995 38786 ft 524 kts 71°
2026-05-05 16:29 50.75997 -50.98293 38786 ft 523 kts 71°
2026-05-05 16:29 50.78659 -50.87612 38792 ft 522 kts 71°
2026-05-05 16:30 50.81311 -50.76916 38793 ft 522 kts 71°
2026-05-05 16:30 50.83950 -50.66223 38791 ft 522 kts 71°
2026-05-05 16:31 50.86578 -50.55523 38791 ft 521 kts 71°
2026-05-05 16:31 50.89182 -50.44868 38799 ft 521 kts 71°
2026-05-05 16:32 50.91788 -50.34152 38799 ft 521 kts 72°
2026-05-05 16:32 50.94384 -50.23425 38798 ft 521 kts 72°
2026-05-05 16:33 50.96973 -50.12675 38812 ft 521 kts 72°
2026-05-05 16:33 50.99507 -50.01914 38818 ft 520 kts 75°
2026-05-05 16:34 51.01312 -49.90840 38817 ft 516 kts 81°
2026-05-05 16:34 51.02891 -49.79730 38822 ft 517 kts 81°
2026-05-05 16:35 51.04491 -49.68658 38833 ft 516 kts 81°
2026-05-05 16:35 51.06084 -49.57542 38833 ft 516 kts 81°
2026-05-05 16:36 51.07665 -49.46411 38835 ft 516 kts 81°
2026-05-05 16:36 51.09229 -49.35278 38843 ft 516 kts 82°
2026-05-05 16:37 51.10781 -49.24109 38848 ft 515 kts 82°
2026-05-05 16:37 51.12318 -49.12962 38853 ft 515 kts 82°
2026-05-05 16:38 51.13840 -49.01839 38854 ft 514 kts 82°
2026-05-05 16:38 51.15341 -48.90781 38854 ft 514 kts 82°
2026-05-05 16:39 51.16840 -48.79660 38858 ft 513 kts 83°
2026-05-05 16:39 51.18331 -48.68507 38865 ft 512 kts 83°
2026-05-05 16:40 51.19804 -48.57404 38876 ft 512 kts 83°
2026-05-05 16:40 51.21257 -48.46375 38878 ft 511 kts 83°
2026-05-05 16:41 51.21982 -48.40832 39144 ft 511 kts 83°
2026-05-05 16:41 51.22701 -48.35249 38907 ft 518 kts 80°
2026-05-05 16:41 51.24185 -48.23813 38872 ft 530 kts 80°
2026-05-05 16:42 51.25666 -48.12330 38877 ft 528 kts 80°
2026-05-05 16:42 51.27132 -48.00830 38878 ft 528 kts 80°
2026-05-05 16:43 51.28584 -47.89344 38880 ft 528 kts 80°
2026-05-05 16:43 51.30028 -47.77827 38886 ft 528 kts 80°
2026-05-05 16:44 51.31458 -47.66317 38892 ft 528 kts 80°
2026-05-05 16:44 51.32872 -47.54847 38899 ft 528 kts 81°
2026-05-05 16:45 51.34280 -47.43326 38904 ft 528 kts 81°
2026-05-05 16:45 51.35679 -47.31776 38902 ft 528 kts 81°
2026-05-05 16:46 51.37064 -47.20240 38908 ft 528 kts 81°
2026-05-05 16:46 51.38430 -47.08758 38903 ft 527 kts 81°
2026-05-05 16:47 51.39790 -46.97227 38910 ft 527 kts 81°
2026-05-05 16:47 51.41143 -46.85659 38907 ft 527 kts 81°
2026-05-05 16:48 51.42480 -46.74115 38917 ft 527 kts 81°
2026-05-05 16:48 51.43804 -46.62583 38930 ft 527 kts 81°
2026-05-05 16:49 51.45119 -46.51032 38930 ft 527 kts 82°
2026-05-05 16:49 51.46422 -46.39464 38932 ft 527 kts 82°
2026-05-05 16:50 51.47714 -46.27896 38935 ft 527 kts 82°
2026-05-05 16:50 51.48986 -46.16400 38939 ft 527 kts 82°
2026-05-05 16:51 51.50257 -46.04802 38944 ft 527 kts 82°
2026-05-05 16:51 51.51517 -45.93191 38954 ft 527 kts 82°
2026-05-05 16:52 51.52763 -45.81596 38957 ft 527 kts 82°
2026-05-05 16:52 51.53997 -45.70006 38961 ft 527 kts 82°
2026-05-05 16:53 51.55221 -45.58397 38964 ft 527 kts 82°
2026-05-05 16:53 51.56435 -45.46764 38969 ft 527 kts 82°
2026-05-05 16:54 51.57626 -45.35230 38975 ft 527 kts 83°
2026-05-05 16:54 51.58816 -45.23597 38979 ft 527 kts 83°
2026-05-05 16:55 51.59992 -45.11982 38982 ft 527 kts 83°
2026-05-05 16:55 51.61159 -45.00339 38980 ft 526 kts 83°
2026-05-05 16:56 51.62119 -44.90665 38989 ft 526 kts 83°
2026-05-05 16:56 51.63262 -44.79034 38993 ft 526 kts 83°
2026-05-05 16:57 51.64394 -44.67398 38998 ft 526 kts 83°
2026-05-05 16:57 51.65515 -44.55742 39008 ft 526 kts 83°
2026-05-05 16:58 51.66623 -44.44101 39006 ft 526 kts 83°
2026-05-05 16:58 51.67721 -44.32445 39014 ft 526 kts 83°
2026-05-05 16:59 51.68810 -44.20748 39016 ft 526 kts 84°
2026-05-05 16:59 51.69883 -44.09090 39022 ft 526 kts 84°
2026-05-05 17:00 51.70946 -43.97421 39035 ft 526 kts 84°
2026-05-05 17:00 51.71999 -43.85723 39036 ft 527 kts 84°
2026-05-05 17:01 51.73040 -43.74020 39039 ft 527 kts 84°
2026-05-05 17:01 51.74065 -43.62369 39045 ft 527 kts 84°
2026-05-05 17:02 51.75084 -43.50646 39050 ft 527 kts 84°
2026-05-05 17:02 51.76089 -43.38944 39056 ft 527 kts 84°
2026-05-05 17:03 51.77085 -43.27206 39056 ft 527 kts 84°
2026-05-05 17:03 51.78066 -43.15493 39062 ft 527 kts 85°
2026-05-05 17:04 51.79038 -43.03752 39074 ft 527 kts 85°
2026-05-05 17:04 51.79994 -42.92065 39075 ft 527 kts 85°
2026-05-05 17:05 51.80941 -42.80325 39077 ft 527 kts 85°
2026-05-05 17:05 51.81878 -42.68581 39070 ft 526 kts 85°
2026-05-05 17:06 51.82800 -42.56850 39079 ft 526 kts 85°
2026-05-05 17:06 51.83713 -42.45093 39083 ft 526 kts 85°
2026-05-05 17:07 51.84612 -42.33367 39086 ft 526 kts 85°
2026-05-05 17:07 51.85500 -42.21618 39088 ft 525 kts 85°
2026-05-05 17:08 51.86374 -42.09893 39097 ft 525 kts 85°
2026-05-05 17:08 51.87232 -41.98230 39100 ft 525 kts 85°
2026-05-05 17:09 51.88083 -41.86497 39104 ft 525 kts 85°
2026-05-05 17:09 51.88923 -41.74742 39104 ft 525 kts 86°
2026-05-05 17:10 51.89749 -41.63028 39114 ft 524 kts 86°
2026-05-05 17:10 51.90566 -41.51272 39123 ft 524 kts 86°
2026-05-05 17:11 51.91370 -41.39528 39113 ft 524 kts 86°
2026-05-05 17:11 51.92160 -41.27800 39120 ft 524 kts 86°
2026-05-05 17:12 51.92940 -41.16056 39125 ft 523 kts 86°
2026-05-05 17:12 51.93702 -41.04413 39130 ft 523 kts 86°
2026-05-05 17:13 51.94456 -40.92694 39129 ft 523 kts 86°
2026-05-05 17:13 51.95199 -40.80975 39133 ft 522 kts 86°
2026-05-05 17:14 51.95930 -40.69250 39136 ft 522 kts 86°
2026-05-05 17:14 51.96648 -40.57546 39137 ft 522 kts 86°
2026-05-05 17:15 51.97354 -40.45836 39153 ft 521 kts 86°
2026-05-05 17:15 51.97473 -40.43859 39146 ft 521 kts 86°